Orbital Elements at Epoch 2459000.5 (2020-May-31.0) TDB
Reference: JPL 17 (heliocentric ecliptic J2000)
Element | Value | Uncertainty (1-sigma) | Units |
e | .3874924918491394 | 4.0315e-08 | |
a | 2.60845335982463 | 1.2324e-08 | au |
q | 1.597697267553924 | 1.03e-07 | au |
i | 29.37936601050494 | 8.7068e-06 | deg |
node | 6.304769303000016 | 7.8733e-06 | deg |
peri | 111.8524134538887 | 1.3497e-05 | deg |
M | 35.68368364214193 | 6.5371e-06 | deg |
tp | 2458847.975285695052 (2019-Dec-30.47528569) | 2.8087e-05 | TDB |
period | 1538.767625574805 4.21 | 1.0905e-05 2.986e-08 | d yr |
n | .2339534534108243 | 1.658e-09 | deg/d |
Q | 3.619209452095336 | 1.7099e-08 | au |
|
| | Orbit Determination Parameters
Additional Information
|